LiveATC.Net - Listen to live air traffic control over the Internet!


ICAO: EPKK  IATA: KRK   Airport: John Paul II Balice International Airport
City: Krakow
Country: Poland   Continent: Europe
EPKK METAR Weather: EPKK 261100Z VRB01KT 9999 FEW006 BKN057 13/11 Q1006
EPKK ADS-B Flight Tracking (ADSBExchange)
EPKK Flight Activity (FlightAware)
EPKK Webcam:  (Airport Webcams) 

EPKK Tower/App
Feed Status: UP   Listeners: 3
Listen in your browser - HTML5 player (in browser, HTML5)
Click here to listen with your own player (launches your MP3 player)
Archive Access: EPKK Tower/App
FacilityFrequency
Krakow Approach121.075
Krakow Approach123.255
Krakow Tower123.255

NOTICE

Unauthorized use prohibited. See LiveATC.net Terms of Service


Airport/ARTCC Code
Frequency Search
(e.g., 124.400, 128.75)
Site-wide search
 


Browse Feeds
Top 50 Feeds
HF Oceanic Feeds
Coverage Map
Bad Weather Areas

LiveATC FAQ
Offer LiveATC feed
Contact LiveATC.net
Press Inquiries

LiveATC on iPhone
LiveATC on Android

LiveATC Mobile
(Mobile browser)

ATC Audio Archives
Interesting Recordings

LiveATC Forums


Home Page
About LiveATC.net


Terms of Use
Privacy Policy

AIRMETs/SIGMETs

FAA Airport Status
NAS Status
Arrival Demand


Server Software By:
Icecast.org
Liquidsoap